Theta_e
342 340 341 341 337 332 327 326 327 327 328 328 329 330 332 332 332 332 332 332 333 337 339 337 338 336 334 333 334 335 333 331 332 332 332 332 331 329 329 329 330 332 333 333 333 333 332 331 330 329 327 330 333 333 333 333 332 332 330 329 328 326
342 341 342 341 340 336 329 329 332 331 330 330 331 333 335 335 334 333 331 333 336 340 340 338 339 338 336 335 334 333 331 331 331 332 332 332 330 328 328 329 329 331 333 333 333 334 333 332 331 328 329 333 334 332 332 331 331 331 331 330 328 327
342 342 342 341 341 338 333 335 338 337 335 335 336 336 338 338 338 337 334 336 339 341 340 338 338 338 337 335 334 332 330 330 332 332 332 332 330 327 327 327 328 331 332 333 335 336 335 335 332 329 331 334 334 332 332 331 330 330 331 331 329 329
342 342 343 342 341 340 338 339 339 339 339 339 339 338 339 339 339 338 337 336 338 340 339 337 337 337 337 335 333 331 330 331 331 330 330 331 330 327 326 327 327 330 332 334 336 337 337 337 335 332 334 335 334 333 332 331 330 330 331 331 331 331
342 342 343 343 342 341 341 340 339 340 341 339 338 338 339 339 339 339 338 336 337 340 338 336 336 336 336 335 333 333 331 332 331 329 329 331 330 327 328 328 328 330 332 334 336 337 337 337 336 335 334 333 333 333 332 331 331 331 331 331 332 332
341 342 343 343 343 342 342 342 341 341 341 339 337 337 338 338 339 339 339 337 337 339 338 336 337 336 337 335 333 333 333 333 332 330 330 330 330 329 330 330 330 331 333 334 335 337 338 337 336 334 333 333 333 333 332 332 332 332 332 331 331 331
342 342 342 342 343 342 341 341 341 341 340 339 338 338 338 338 340 340 338 337 337 338 338 337 337 337 336 335 333 333 333 333 331 331 331 331 330 330 330 330 331 332 332 333 335 337 337 337 335 333 332 332 333 333 333 332 332 333 332 331 331 331
342 342 343 342 342 341 341 341 341 340 340 340 340 339 339 339 340 339 337 337 337 337 337 337 337 336 335 334 334 333 332 333 332 332 333 332 331 331 331 331 331 330 331 332 335 337 337 336 334 333 332 332 333 334 333 333 333 333 333 333 331 330
343 342 342 342 341 341 341 342 341 340 340 340 341 341 340 340 340 339 338 339 338 337 337 337 336 335 335 334 333 332 331 332 333 333 333 332 332 331 331 332 331 330 330 332 334 335 335 335 334 333 333 333 334 334 334 334 332 333 333 334 332 330
343 342 341 342 342 341 342 342 342 341 340 339 339 340 340 340 339 339 339 338 338 338 337 337 336 335 335 334 332 332 332 332 333 333 333 333 333 332 332 332 332 331 331 332 334 335 335 335 334 333 333 333 334 334 334 333 332 332 333 333 332 330
343 341 341 342 341 342 342 340 340 340 339 338 338 337 337 337 337 338 338 337 337 339 338 337 336 335 334 333 332 332 332 333 333 333 334 333 333 333 332 332 332 331 331 332 334 334 334 333 333 332 333 334 334 335 334 333 332 332 333 333 332 331
341 340 341 342 342 342 340 337 338 339 338 338 336 334 334 335 336 336 337 337 337 336 335 333 334 335 333 331 332 333 332 333 333 333 334 333 333 334 333 333 334 333 333 333 334 334 333 332 332 332 332 334 334 334 334 333 332 332 332 333 333 333
340 339 339 340 340 339 338 337 337 338 337 336 334 333 333 334 335 337 336 335 335 333 331 330 331 333 333 332 332 332 333 334 334 333 334 333 334 334 334 334 335 335 335 334 334 334 333 332 332 332 333 334 335 334 333 332 332 332 332 332 332 332
339 338 338 338 338 338 337 337 336 337 336 335 333 331 332 332 333 337 336 334 334 332 330 331 331 331 331 332 331 332 333 334 333 333 334 334 334 334 334 334 335 335 335 334 334 333 333 332 333 333 334 335 335 334 333 332 332 332 332 332 332 331
339 338 338 338 338 337 337 336 336 336 334 334 332 329 330 331 331 335 336 335 335 333 331 332 332 331 330 330 332 334 334 334 333 333 334 334 334 335 335 335 334 334 335 334 333 333 333 333 334 335 335 334 333 333 333 332 332 332 331 332 331 331
339 338 338 337 337 337 336 336 336 335 334 333 332 329 328 331 332 334 335 335 335 333 333 333 333 332 330 331 334 334 334 334 333 333 333 334 335 335 335 335 335 335 335 334 333 333 333 334 335 334 334 333 332 332 332 331 331 331 331 331 331 331
338 338 337 336 336 337 336 336 335 334 334 332 331 329 328 331 334 334 335 336 334 333 333 333 333 331 331 333 335 334 334 334 334 334 334 334 335 335 335 335 336 336 335 334 334 333 334 334 334 333 332 332 331 331 331 332 331 331 331 331 331 331
337 337 336 335 335 335 336 335 334 333 332 331 330 330 330 332 334 334 336 336 334 334 334 334 333 332 332 334 334 333 333 334 334 335 335 335 335 335 335 335 336 336 335 334 334 334 334 333 333 332 332 331 330 330 331 331 331 331 331 331 331 331
335 336 335 334 333 334 335 334 333 332 331 330 330 331 333 333 333 335 336 335 334 334 334 334 333 333 334 334 333 333 334 334 335 336 335 335 335 335 336 335 335 335 335 334 333 333 332 332 332 332 331 330 330 330 331 331 331 331 331 331 331 330
334 335 334 333 333 333 333 332 332 332 331 331 332 333 334 334 334 335 335 334 334 334 333 333 332 332 334 334 334 334 334 334 335 336 335 335 334 335 336 335 335 334 334 334 333 332 331 332 332 332 331 331 331 330 330 331 331 331 331 331 330 330
334 334 332 332 333 333 333 332 332 333 333 332 332 333 335 335 335 335 335 335 336 334 332 332 332 333 335 335 335 335 334 335 335 335 335 335 334 335 335 335 334 334 333 334 334 332 332 333 331 331 330 329 329 330 330 331 330 330 330 331 330 330
334 332 330 331 332 333 333 332 332 333 332 333 333 334 335 335 335 336 336 336 336 335 334 334 334 335 336 336 335 336 336 336 335 335 336 335 334 334 334 334 334 333 333 334 334 333 333 333 332 331 329 328 329 329 329 330 330 330 330 331 331 330
335 332 330 330 331 332 332 333 334 333 332 333 334 334 334 335 335 336 336 336 336 336 336 336 336 336 336 335 335 335 335 336 335 335 335 335 335 334 334 334 333 333 333 333 334 333 332 333 333 331 330 329 329 329 329 329 330 330 330 330 330 330
335 332 330 330 330 331 332 333 334 334 333 334 335 335 335 335 335 335 336 336 336 336 336 336 336 335 335 335 335 334 335 335 335 335 335 335 335 334 334 334 333 333 333 333 333 332 332 333 332 330 330 329 329 329 329 329 329 328 328 328 328 328
335 333 332 330 330 331 333 333 334 334 334 335 335 335 336 336 336 335 336 336 335 335 335 335 335 334 334 335 335 334 334 334 334 334 334 335 335 334 334 334 334 334 333 333 333 332 332 333 332 329 328 328 328 330 329 328 328 328 327 327 327 327
335 334 333 332 331 332 333 334 334 334 333 334 335 335 335 336 336 335 335 335 335 335 335 335 335 335 335 334 334 334 334 333 333 333 334 334 334 334 334 333 334 333 333 333 333 333 332 333 332 330 330 331 330 329 328 327 329 329 327 327 327 327
335 334 334 333 332 333 334 333 333 333 333 334 335 335 335 336 336 335 335 335 335 335 335 335 335 334 334 334 334 334 334 333 333 333 334 334 334 334 333 333 333 333 333 333 332 331 331 332 332 330 332 334 332 328 327 327 329 328 327 327 327 327
335 334 334 333 332 333 334 334 334 335 335 335 335 335 335 336 335 335 335 335 334 334 334 334 333 333 334 334 334 334 333 334 333 333 334 334 334 334 333 332 333 334 333 333 332 330 330 331 328 328 331 333 332 330 328 329 329 327 327 326 325 325
334 334 334 333 333 334 334 335 335 336 336 335 335 335 334 334 334 334 334 334 333 333 333 333 332 332 333 333 333 333 333 334 333 333 333 333 333 334 334 334 334 334 333 334 333 331 330 330 329 330 332 332 331 330 329 330 329 327 327 326 324 324
334 334 334 333 333 334 335 335 336 337 336 335 335 334 334 334 334 333 333 333 333 332 332 332 332 332 332 331 332 333 334 334 334 333 333 333 333 334 334 334 334 334 333 334 333 332 332 332 332 333 332 330 330 329 329 330 329 327 327 327 325 324
333 333 333 333 334 334 335 335 336 337 337 336 335 334 334 334 333 333 332 332 332 333 333 332 332 331 331 331 331 332 333 334 334 333 333 333 334 334 334 334 334 334 334 334 333 332 333 333 333 333 331 329 330 330 329 330 329 328 327 327 326 324
333 333 333 333 334 334 335 336 336 337 336 335 335 334 334 334 333 332 332 332 332 333 333 332 331 330 330 330 330 330 331 333 334 333 333 333 333 333 333 334 333 333 333 333 333 332 333 333 332 332 330 328 329 328 327 327 327 327 327 327 326 325
332 332 333 333 334 334 335 336 336 336 335 334 334 334 334 334 333 332 332 332 332 332 331 331 330 330 329 329 329 329 330 331 332 333 333 332 332 332 332 333 333 333 333 333 332 332 332 333 332 332 330 329 329 328 327 326 326 327 327 326 326 326
332 333 333 333 334 334 335 335 335 335 333 333 333 333 333 333 332 332 332 331 330 330 329 329 329 328 328 328 328 328 329 329 331 332 333 332 332 332 332 332 332 332 332 332 332 332 332 332 332 331 329 328 329 329 328 327 327 327 327 326 326 325
333 333 333 333 334 334 334 335 335 333 333 333 333 332 332 332 331 330 330 329 329 328 328 328 328 328 328 328 327 327 328 329 329 330 332 333 332 332 332 332 331 331 332 332 332 332 332 332 331 331 329 327 327 328 327 326 327 327 326 326 326 324
333 333 333 333 334 334 334 334 334 333 333 332 332 331 331 330 330 329 329 329 328 328 328 328 327 327 327 327 327 327 327 329 329 329 330 331 332 332 331 331 331 331 331 331 332 333 332 331 330 330 329 328 327 327 327 326 326 326 326 325 325 323
333 333 333 333 333 333 334 334 333 333 332 331 330 330 330 330 329 328 328 328 328 328 328 327 327 327 326 326 326 326 326 328 329 329 329 329 330 330 331 332 331 330 330 331 332 332 330 329 329 330 331 330 328 327 327 326 326 326 325 325 325 323
Wind_Speed
19 20 19 19 19 20 19 18 18 18 19 20 20 19 18 16 16 16 16 17 16 16 15 16 16 15 16 15 14 13 13 13 13 12 12 12 12 12 12 10 9 10 9 9 12 13 12 10 9 8 8 11 14 11 9 9 10 11 11 12 13 13
19 20 19 19 18 18 19 18 16 17 19 20 20 19 17 16 16 17 18 17 16 14 13 15 16 15 16 16 14 12 11 11 12 12 12 12 12 13 13 11 10 10 10 9 12 13 11 11 9 8 9 11 10 8 8 9 10 10 11 11 12 14
18 19 18 18 17 18 19 18 17 17 18 18 18 18 16 15 15 17 18 17 15 14 14 16 17 16 15 15 14 12 12 11 11 12 12 11 11 13 13 11 10 10 11 10 11 12 11 11 10 9 8 8 8 8 9 9 9 10 11 11 11 13
17 19 17 16 16 17 17 17 17 17 17 16 17 18 16 15 16 17 17 18 17 14 14 17 17 17 16 15 14 12 12 11 11 11 11 10 9 11 11 11 10 10 12 10 9 10 10 11 10 9 7 7 8 9 8 8 9 10 10 11 11 11
17 17 15 15 15 16 16 15 16 16 15 15 17 17 16 17 17 18 18 19 19 15 14 17 17 17 15 13 13 12 11 10 9 9 9 9 9 11 10 10 10 10 10 8 7 9 9 9 10 9 7 8 9 9 8 8 9 10 10 11 10 9
16 16 14 14 13 15 16 14 14 15 15 14 15 15 15 18 17 16 17 18 19 17 15 16 15 14 13 12 13 12 10 9 9 9 9 9 9 10 10 10 10 9 8 8 7 8 8 9 9 9 8 8 8 9 8 9 9 9 10 10 9 7
15 15 15 13 13 15 15 13 13 15 15 13 13 13 13 16 15 14 18 19 19 17 14 14 13 12 12 11 11 10 10 9 8 9 9 9 9 10 10 10 10 10 9 8 7 8 8 9 9 9 9 9 8 8 8 9 9 9 10 10 9 7
15 16 15 14 14 15 14 12 12 14 14 13 12 12 13 13 13 15 18 17 16 14 14 13 11 10 10 10 10 10 10 9 8 8 8 8 9 9 9 9 9 10 10 8 8 9 8 9 9 9 8 8 8 8 8 8 8 8 9 9 10 8
16 17 15 15 15 15 14 12 12 12 12 13 12 10 10 10 10 13 14 15 13 12 13 12 10 10 9 9 10 10 9 8 8 8 8 7 7 8 8 9 9 10 10 9 9 9 9 10 9 8 8 8 8 8 8 8 8 8 9 9 10 9
17 17 16 15 16 15 14 13 12 11 12 13 13 11 8 8 9 10 12 14 14 12 11 11 10 10 10 10 10 9 8 7 8 8 7 7 7 7 8 8 9 9 9 9 9 9 9 10 9 8 8 8 8 8 8 8 7 8 9 9 9 10
18 18 17 16 16 15 15 16 14 12 13 13 12 12 10 9 10 11 11 12 14 12 11 10 10 9 10 11 10 9 9 8 8 7 7 7 7 7 7 7 8 8 9 9 9 9 10 10 9 8 8 8 8 8 8 7 7 7 8 9 9 10
19 20 20 19 16 15 17 19 15 13 14 13 12 12 12 11 10 11 11 11 13 13 12 12 10 9 9 10 10 10 9 9 8 7 7 7 7 6 6 7 7 7 8 8 9 9 9 9 9 8 8 7 7 8 8 7 7 7 7 8 8 9
19 20 22 21 17 16 17 18 16 14 14 13 13 13 13 13 10 8 10 11 12 13 12 12 11 9 9 10 11 10 9 8 8 7 6 7 7 6 6 7 7 8 8 9 9 9 9 9 8 8 8 7 7 8 8 7 7 7 7 7 7 8
19 21 22 19 18 17 16 16 15 15 15 13 13 13 13 13 11 8 10 11 12 13 12 12 12 11 10 10 11 11 9 8 7 6 6 6 6 6 6 7 7 8 8 9 10 10 10 9 8 8 8 7 8 8 7 7 7 7 6 6 6 7
19 22 22 17 15 16 16 17 15 14 14 13 14 14 13 14 12 10 11 12 12 14 14 13 12 12 12 11 10 10 9 7 7 6 6 6 6 6 6 7 7 8 8 8 10 10 9 9 9 9 8 7 8 8 7 7 7 7 7 6 6 5
17 20 20 16 14 15 16 16 14 13 14 12 12 13 14 15 13 12 11 12 13 14 14 13 12 12 11 9 9 9 8 6 6 6 6 6 6 6 7 7 7 8 8 9 10 10 9 9 9 9 9 8 8 8 8 8 8 7 7 6 6 5
16 16 16 15 16 16 15 15 13 13 13 12 10 11 15 16 14 13 12 12 14 14 13 12 12 11 9 8 9 8 7 6 6 7 6 6 6 6 7 8 7 8 8 9 10 11 10 9 10 10 9 9 9 9 10 9 8 8 7 7 6 5
18 15 14 16 20 18 14 15 14 13 12 11 10 12 16 15 14 13 11 12 13 12 11 11 11 10 9 11 9 8 7 6 6 6 6 6 6 7 7 8 8 7 7 9 10 11 11 10 10 10 10 10 10 10 10 10 9 8 8 7 6 6
20 20 15 14 19 20 15 14 14 12 12 12 11 13 13 13 14 12 10 11 12 11 10 10 11 10 10 10 9 8 7 8 7 6 6 7 7 7 7 8 8 8 7 8 10 12 13 11 11 11 10 10 10 10 9 9 9 8 8 7 7 6
17 19 14 14 18 19 15 14 13 13 13 13 12 11 10 10 10 9 8 9 10 9 9 9 10 9 9 9 9 8 8 8 7 6 7 7 7 7 7 8 9 9 9 8 10 14 14 12 12 11 11 10 11 11 10 9 8 8 7 7 7 6
15 15 13 14 19 18 16 16 14 13 13 14 13 11 9 7 7 7 7 7 7 7 7 7 9 9 9 8 8 8 8 8 7 6 6 7 7 7 7 9 9 9 10 10 11 13 14 14 14 13 12 11 11 11 10 9 8 7 7 7 6 6
16 17 17 16 18 17 15 15 14 13 13 13 13 11 10 8 7 7 7 6 7 7 7 8 9 9 8 8 8 8 8 8 7 6 6 6 7 8 8 9 10 10 10 11 11 13 15 14 13 13 13 11 10 10 9 8 8 7 7 7 7 7
15 21 22 19 19 18 14 12 11 11 12 11 11 11 9 9 8 8 7 7 7 8 9 9 9 8 8 7 8 8 8 7 7 7 6 7 8 9 9 9 11 11 11 11 11 14 16 12 11 13 11 8 7 6 7 7 7 7 7 8 7 8
14 20 23 20 20 20 15 11 9 9 10 9 10 10 9 9 8 8 7 7 7 8 8 7 8 8 7 8 8 8 8 8 7 7 6 8 9 9 9 10 11 11 12 12 11 14 15 10 11 14 8 4 5 5 4 7 8 8 8 8 8 8
14 17 19 17 18 19 15 13 11 11 10 9 9 10 9 9 8 8 8 7 7 7 7 7 7 7 7 7 8 9 9 9 8 8 7 7 8 9 10 10 11 11 12 12 12 13 13 10 13 17 12 5 4 3 4 8 10 8 7 8 8 8
14 14 15 16 17 17 16 15 15 15 14 12 11 11 10 10 10 9 8 7 7 7 7 7 7 8 8 7 8 9 9 10 9 9 8 8 8 9 10 10 10 11 11 12 12 11 11 12 12 13 11 5 3 5 8 11 9 6 7 8 8 8
14 13 14 15 17 17 15 15 16 15 15 13 11 11 10 9 9 9 8 8 8 8 8 8 8 8 8 8 8 9 10 10 10 10 9 8 8 9 10 10 10 11 11 10 12 13 13 12 10 8 7 5 3 9 15 13 8 7 7 7 8 9
13 12 13 14 17 17 15 14 14 13 12 12 10 10 10 9 9 9 9 9 9 8 8 8 8 8 8 9 9 10 10 10 10 10 9 9 9 9 10 10 10 9 9 8 10 15 16 15 14 11 9 6 3 10 15 11 9 10 8 7 8 8
13 13 14 14 15 16 14 14 13 12 11 10 9 10 11 10 9 10 10 10 8 8 7 7 7 8 8 9 9 10 10 9 10 9 9 9 9 9 9 9 10 9 9 8 8 12 15 16 16 12 9 7 5 10 13 9 9 11 8 8 8 8
14 14 13 13 15 15 14 13 12 11 11 10 10 11 11 11 11 10 10 9 9 9 8 8 8 7 7 8 8 9 9 9 9 9 9 9 9 9 8 8 9 9 9 8 8 10 11 11 12 9 7 7 6 10 11 8 9 9 8 9 8 9
15 14 14 14 15 17 15 13 12 12 12 12 12 12 12 12 12 11 10 10 9 9 9 9 9 8 8 8 8 9 9 9 9 9 9 9 9 9 8 8 8 9 9 8 7 8 9 9 9 9 8 6 5 6 7 5 7 8 9 9 8 9
16 15 16 16 16 17 15 13 12 13 13 13 13 13 12 12 12 12 12 11 9 9 9 9 9 8 8 8 8 8 9 10 10 9 9 9 9 8 8 9 9 9 9 9 8 8 8 8 9 8 7 6 5 5 6 6 8 7 8 9 9 10
19 17 18 17 17 17 16 14 14 14 14 14 13 13 12 12 12 12 12 11 10 9 9 9 8 8 8 9 8 8 8 9 9 10 9 9 9 9 8 8 8 8 8 9 9 8 8 7 8 7 5 5 5 5 6 7 11 9 7 10 10 10
19 19 19 18 18 18 16 15 14 14 14 13 13 12 11 11 11 10 10 10 9 9 8 8 8 8 8 8 7 7 7 8 8 10 10 9 8 9 9 8 8 8 8 9 8 8 8 7 7 7 7 9 8 7 7 6 9 9 9 9 9 10
20 21 21 19 18 18 17 15 14 14 13 12 11 11 10 10 9 9 9 8 8 7 7 7 7 8 7 7 6 6 7 8 8 9 10 10 10 10 10 8 8 9 9 9 9 9 8 7 8 8 10 11 10 10 10 7 7 8 9 9 9 11
22 22 22 20 19 18 16 15 14 14 13 11 11 10 9 9 9 8 8 8 7 6 6 6 6 7 7 6 6 7 8 8 9 9 10 11 11 10 10 9 8 10 9 8 9 9 8 8 8 8 10 11 11 11 10 8 8 8 8 8 9 11
22 22 22 21 19 17 16 15 15 14 13 12 11 10 10 10 9 9 8 7 6 5 5 5 5 6 6 6 6 6 8 9 10 9 10 10 10 10 11 10 10 11 10 9 9 9 9 9 8 7 8 11 12 11 10 9 9 9 10 9 10 11
Wind_Direction
165 163 158 156 158 162 166 166 166 169 169 171 171 172 170 167 164 169 171 168 166 160 158 154 149 149 150 151 151 150 149 151 158 160 162 164 166 163 160 159 152 143 138 140 143 143 140 133 124 116 107 88 76 77 84 86 85 87 91 91 95 100
166 165 161 157 156 162 165 163 166 168 168 168 169 170 168 167 165 169 171 168 165 157 155 151 145 145 146 148 146 145 148 150 154 159 165 170 172 167 161 159 155 147 144 144 143 145 147 141 132 124 106 85 82 93 93 91 92 89 91 94 97 101
166 167 164 157 155 161 164 164 168 169 168 168 171 170 166 168 168 169 170 166 160 156 157 152 145 145 143 142 140 139 144 145 149 161 170 172 173 166 160 161 158 151 147 143 142 149 152 147 140 130 111 91 98 106 99 100 99 94 94 97 103 106
169 168 164 159 158 162 165 169 171 170 169 171 174 171 168 173 172 171 174 169 160 155 156 153 147 146 142 138 137 137 141 142 148 162 168 166 169 166 161 162 164 157 152 149 148 155 157 152 147 140 131 114 112 111 108 105 100 99 98 102 108 109
170 169 167 163 163 165 168 172 173 171 171 175 178 175 177 180 177 176 177 171 162 154 150 150 146 143 139 137 139 139 140 140 142 148 152 152 163 169 166 166 169 165 160 163 161 160 160 157 152 146 138 126 120 118 112 106 105 104 103 107 109 111
168 169 172 170 169 170 171 173 175 175 175 181 184 180 184 186 183 176 170 167 162 154 148 145 144 143 139 140 143 141 139 138 140 143 148 153 162 174 177 175 177 176 175 180 174 162 164 162 155 148 138 129 124 121 115 111 113 111 108 109 112 112
170 173 177 177 176 175 176 177 177 176 176 183 187 182 186 191 188 174 164 165 162 152 144 141 140 141 137 140 142 139 137 137 142 145 149 156 164 176 182 180 179 179 179 185 180 169 168 163 156 150 140 131 125 121 117 115 115 114 113 113 117 110
176 176 177 178 182 180 179 180 178 177 177 180 181 184 193 192 183 171 163 163 162 152 144 140 140 138 134 138 138 136 136 136 143 146 147 156 165 172 174 173 172 176 183 185 178 174 170 161 155 150 139 131 126 120 115 113 114 117 116 118 119 107
177 176 176 179 187 186 182 180 176 175 179 179 177 184 190 185 172 160 157 156 154 148 142 140 141 139 135 136 134 134 136 137 145 148 150 156 160 161 162 165 170 177 182 181 174 173 169 161 155 149 140 132 126 119 114 113 115 115 114 120 119 108
174 176 180 184 189 186 183 180 174 174 176 174 180 184 171 169 167 153 152 152 145 140 137 138 140 137 135 135 134 138 141 144 150 152 152 154 153 154 158 163 171 178 177 176 172 168 165 160 155 147 140 134 126 120 117 114 115 113 112 117 115 110
175 177 180 190 192 185 183 182 177 176 172 165 175 183 174 172 172 158 152 147 142 139 135 135 136 135 139 140 142 147 148 150 153 153 150 150 150 152 159 164 170 175 175 173 164 161 161 159 158 150 143 136 128 123 119 116 115 114 114 115 111 110
181 183 185 192 191 186 188 184 177 172 168 165 170 178 180 178 172 163 157 149 143 138 135 138 137 138 144 147 151 154 152 151 156 157 151 148 150 152 156 157 162 168 168 163 157 159 159 159 162 153 144 137 129 126 122 119 117 114 115 118 118 117
186 191 195 196 190 189 191 183 175 169 165 164 170 174 178 175 165 161 160 155 145 138 138 141 143 147 151 155 158 157 155 156 161 163 156 151 151 152 151 150 154 159 159 159 156 156 157 160 163 151 144 139 129 125 122 122 120 117 119 119 120 122
186 194 198 194 188 187 183 180 177 167 163 165 169 172 177 176 169 161 157 157 151 146 146 144 148 154 157 163 163 161 160 162 168 170 163 157 154 153 150 152 157 156 154 158 157 159 164 162 159 150 146 140 127 121 121 124 122 124 123 117 119 125
189 200 199 188 183 181 173 178 178 170 170 172 174 177 179 181 183 178 160 159 160 156 155 153 154 158 161 168 168 164 164 169 172 173 172 165 159 159 159 161 164 160 156 159 158 162 166 159 154 151 145 138 128 124 124 125 128 131 128 123 123 127
185 196 199 190 180 180 177 177 178 177 179 176 179 187 187 187 191 188 171 163 164 160 160 158 159 161 161 170 177 169 169 175 172 173 182 174 163 166 167 167 168 166 162 159 159 161 163 157 152 147 140 136 132 130 131 132 135 136 134 133 128 124
183 188 192 193 188 184 179 178 183 184 182 181 183 189 191 192 193 184 169 165 166 162 162 161 161 158 162 185 187 172 168 173 171 176 186 176 169 172 170 169 167 166 168 162 158 158 159 154 148 146 142 137 135 136 136 137 140 141 141 139 133 128
183 189 182 190 198 194 180 177 186 186 187 191 184 181 186 188 191 182 163 161 164 159 159 162 157 154 177 198 186 167 165 166 170 175 180 177 175 173 170 172 166 161 167 166 162 160 157 152 148 147 144 138 136 139 139 140 143 146 144 139 132 127
177 191 177 174 190 193 186 179 182 186 196 202 189 183 185 180 181 180 164 159 157 154 160 163 156 159 188 194 173 163 164 164 167 170 179 181 176 172 167 168 167 160 158 162 163 160 155 151 150 148 145 141 141 141 140 143 145 143 138 133 130 123
172 191 179 157 171 184 188 184 185 188 194 197 187 183 187 179 173 168 161 160 154 152 160 161 158 171 190 180 164 163 164 166 169 172 183 184 177 174 165 166 168 161 154 152 155 157 154 150 145 138 137 139 142 143 137 137 139 136 132 130 130 125
164 183 184 168 170 179 185 185 191 192 190 186 179 180 183 175 166 160 157 159 153 154 166 166 165 181 185 169 161 162 163 170 173 178 186 182 177 171 165 167 165 162 161 156 154 158 157 150 143 137 134 130 125 125 127 131 133 134 136 135 134 130
162 163 173 185 184 183 185 187 192 193 190 179 171 178 179 169 167 161 159 161 158 165 177 178 178 183 177 165 164 163 167 174 178 182 179 174 172 166 166 168 165 166 168 165 161 161 158 153 149 144 138 129 110 102 112 124 129 133 139 137 134 131
163 155 163 186 195 190 188 189 193 191 187 176 169 177 174 170 172 164 163 169 168 173 178 180 181 178 172 172 172 170 174 179 181 182 176 171 170 168 171 173 173 172 170 169 166 165 166 160 150 143 132 132 128 114 119 125 125 127 128 127 128 131
167 163 168 183 190 188 189 189 185 181 179 171 167 170 166 167 171 169 170 172 173 177 179 181 181 180 182 183 179 178 181 182 184 186 182 179 175 174 176 177 179 177 173 171 167 172 177 171 157 149 132 119 140 141 145 140 129 117 116 119 119 125
169 169 171 178 183 183 185 183 174 170 173 169 165 168 168 167 172 177 175 174 178 180 184 184 184 189 190 185 181 183 185 184 188 190 189 188 181 179 181 182 183 181 180 178 172 174 178 178 166 156 148 136 137 153 158 145 133 114 113 117 114 118
168 168 169 174 182 182 180 178 172 171 174 172 171 174 175 172 176 181 177 176 179 180 186 186 186 190 184 180 179 180 185 188 189 190 192 193 187 184 186 188 187 185 190 188 173 168 177 181 176 168 164 157 146 165 161 152 144 128 124 120 113 115
166 167 170 174 181 182 179 177 174 175 177 177 175 174 174 174 175 177 172 173 176 179 187 187 186 185 178 179 179 178 183 185 187 190 192 195 191 188 191 191 189 189 197 192 169 169 184 181 179 194 188 164 147 164 168 167 154 143 140 130 121 115
164 168 171 172 176 181 180 177 178 180 180 179 175 167 165 164 166 167 168 174 177 180 188 190 187 184 178 179 181 179 179 181 185 189 191 196 194 190 193 191 188 189 195 193 175 177 184 181 184 196 189 178 174 165 175 180 162 157 154 141 134 121
158 162 165 169 175 183 182 177 180 183 179 175 168 162 158 158 163 166 166 171 174 175 182 185 184 184 181 180 181 176 174 178 181 185 189 194 194 192 192 187 183 185 186 190 190 183 183 187 194 194 180 182 180 166 176 181 169 172 162 144 146 136
163 164 166 171 177 182 181 178 182 182 176 169 163 162 160 160 165 166 165 167 171 173 174 175 176 179 179 178 178 172 173 178 177 181 186 189 193 190 187 184 180 181 183 187 186 180 187 198 203 199 187 191 185 169 174 176 177 180 160 145 148 147
171 170 169 171 174 176 177 180 182 180 176 169 165 165 163 163 163 162 165 167 172 172 168 169 170 170 172 173 172 170 174 176 175 180 183 186 193 190 186 183 178 177 184 192 185 181 197 209 213 212 203 204 198 167 165 184 195 181 157 148 145 149
170 169 167 169 175 177 177 180 182 182 179 174 170 169 167 166 166 166 168 169 171 169 164 165 164 164 165 166 169 171 175 174 173 179 184 189 192 193 193 186 181 181 185 197 197 192 204 211 218 222 207 202 207 186 168 190 229 217 161 146 147 152
166 165 165 169 177 178 177 180 182 182 180 177 177 176 172 169 169 169 168 167 167 165 162 162 161 162 161 162 166 168 173 175 174 176 182 190 190 191 198 194 190 188 187 199 202 202 207 209 218 224 217 210 205 197 183 194 229 226 158 143 153 154
165 165 166 171 177 179 180 180 180 180 179 179 181 179 174 171 168 165 164 163 162 160 161 160 160 161 160 164 168 166 171 175 175 175 174 181 184 185 194 196 194 193 193 199 203 207 210 207 211 211 213 218 209 202 202 209 224 200 155 154 160 155
166 166 168 173 178 179 180 179 179 179 178 180 181 178 173 169 163 157 154 154 154 154 154 154 156 156 155 163 172 173 176 176 175 174 170 174 180 183 186 187 193 198 195 197 201 206 207 207 210 203 202 211 209 201 197 200 209 186 165 166 158 155
169 169 170 175 180 180 179 177 178 178 178 178 176 172 166 158 151 145 143 145 146 145 146 148 150 150 152 162 171 176 183 179 173 171 170 173 178 180 179 178 191 197 193 198 205 203 203 203 204 200 197 196 191 184 182 189 195 178 165 163 156 158
171 171 173 176 180 180 177 176 177 178 178 174 168 163 155 147 142 139 138 139 142 141 142 148 151 153 156 160 163 171 178 178 174 171 170 174 178 179 178 180 185 186 186 197 206 204 201 195 192 194 193 190 186 176 172 184 183 166 163 167 162 163